AirNav   Free Bose Alto or Rondo audio sunglasses
 
 1120 users online  

91C Sauk-Prairie Airport
Prairie du Sac, Wisconsin, USA

GOING TO PRAIRIE DU SAC?


FAA INFORMATION EFFECTIVE 05 NOVEMBER 2020

Location

FAA Identifier: 91C
Lat/Long: 43-17-52.3000N 089-45-20.9000W
43-17.871667N 089-45.348333W
43.2978611,-89.7558056
(estimated)
Elevation: 832 ft. / 253.6 m (surveyed)
Variation: 00E (1985)
From city: 2 miles W of PRAIRIE DU SAC, WI
Time zone: UTC -6 (UTC -5 during Daylight Saving Time)
Zip code: 53578

Airport Operations

Airport use: Open to the public
Activation date: 01/1963
Control tower: no
ARTCC: CHICAGO CENTER
FSS: GREEN BAY FLIGHT SERVICE STATION
NOTAMs facility: GRB (NOTAM-D service available)
Attendance: 
Wind indicator: lighted
Segmented circle: no
Lights: ACTVT MIRL RY 18/36, REIL RYS 18 & 36, & PAPI RYS 18 & 36 - CTAF.
Beacon: white-green (lighted land airport)
Operates sunset to sunrise.

Airport Communications

CTAF: 122.9
MADISON APPROACH: 135.45
MADISON DEPARTURE: 135.45
WX AWOS-3 at DLL (13 nm N): 118.325 (608-356-1071)
WX AWOS-3 at C29 (15 nm SE): 118.675 (608-833-1686)
WX AWOS-3PT at C35 (17 nm NW): 118.95 (608-768-0023)
WX ASOS at LNR (19 nm W): 119.425 (608-583-2576)
  • APCH/DEP SVC PRVDD BY CHICAGO ARTCC ON FREQS 133.3/380.35 (LONE ROCK RCAG) WHEN MADISON TWR CLSD.

Nearby radio navigation aids

VOR radial/distance  VOR name  Freq  Var
DLLr176/15.2DELLS VORTAC117.0003E
MSNr294/20.4MADISON VORTAC108.6003E

Airport Services

Fuel available: UL94
Parking: tiedowns
Airframe service: MAJOR
Powerplant service: MAJOR
Bottled oxygen: NONE
Bulk oxygen: NONE

Runway Information

Runway 18/36

Dimensions: 2936 x 60 ft. / 895 x 18 m
Surface: asphalt, in good condition
Runway edge lights: medium intensity
RUNWAY 18  RUNWAY 36
Latitude: 43-18.113167N43-17.630495N
Longitude: 089-45.365038W089-45.331887W
Elevation: 831.4 ft.820.1 ft.
Traffic pattern: leftleft
Runway heading: 177357
Markings: nonprecision, in good conditionnonprecision, in good condition
Visual slope indicator: 2-light PAPI on left (3.00 degrees glide path)2-light PAPI on left (3.00 degrees glide path)
Runway end identifier lights: yesyes
Touchdown point: yes, no lightsyes, no lights

Airport Ownership and Management from official FAA records

Ownership: Privately-owned
Owner: CFM INVESTMENTS
ONE QUENCH DRIVE
PRAIRIE DU SAC, WI 53578
Phone 608-643-8530
Manager: SAUK PRAIRIE AIRPORT INC.
P O BOX 7
PRAIRIE DU SAC, WI 53754
Phone 608-577-3754

Airport Operational Statistics

Aircraft based on the field: 28
Single engine airplanes: 26
Jet airplanes: 1
Gliders airplanes: 1
    
Aircraft operations: avg 23/day *
66% local general aviation
30% transient general aviation
4% military
<1% air taxi
* for 12-month period ending 16 July 2020

Additional Remarks

ULTRALIGHT ACTVTY ON & INVOF ARPT.
MAINT VEHICLE TFC ON AND INVOF ARPT.
W RAMP AND TWY PVT, CLSD TSNT.
AVOID HOSPITAL/HELIPAD 3,000 FT SOUTHEAST OF RY 36 THLD.
RY 18 DEPS CLIMB TO 1,800 FT MSL ON RY HEADING BFR TURNING EAST/SOUTHEAST.
TKOFS & LDGS ARE PROHIBITED ON UNPAVED SFCS.
FOR CD CTC CHICAGO ARTCC AT 630-906-8921.

Instrument Procedures

NOTE: All procedures below are presented as PDF files. If you need a reader for these files, you should download the free Adobe Reader.

NOT FOR NAVIGATION. Please procure official charts for flight.
FAA instrument procedures published for use from 05 November 2020 at 0901Z to 03 December 2020 at 0900z.

 
IAPs - Instrument Approach Procedures
RNAV (GPS) RWY 18   download (236KB)
RNAV (GPS) RWY 36   download (252KB)
NOTE: Special Take-Off Minimums/Departure Procedures apply   download (201KB)

Other nearby airports with instrument procedures:

KDLL - Baraboo-Wisconsin Dells Regional Airport (13 nm N)
C29 - Middleton Municipal Airport - Morey Field (15 nm SE)
C35 - Reedsburg Municipal Airport (17 nm NW)
KLNR - Tri-County Regional Airport (19 nm W)
C47 - Portage Municipal Airport (20 nm NE)
 
Loc | Ops | Rwys | IFR | FBO | Links
Com | Nav | Svcs | Stats | Notes
Area around 91C (Sauk-Prairie Airport)
 
Road maps at: MapQuest Bing Google
 
Aerial photo
WARNING: Photo may not be current or correct
Aerial photo of 91C (Sauk-Prairie Airport)
Do you have a better or more recent aerial photo of Sauk-Prairie Airport that you would like to share? If so, please send us your photo.

 
Sectional chart

 
Airport distance calculator
Flying to Sauk-Prairie Airport? Find the distance to fly.

From to 91C

Sunrise and sunset
Times for 27-Nov-2020
 Local
(UTC-6)
 Zulu
(UTC)
Morning civil twilight06:3712:37
Sunrise07:0913:09
Sunset16:2522:25
Evening civil twilight16:5722:57

Current date and time
Zulu (UTC)  27-Nov-2020 20:58:10
Local (UTC-6)  27-Nov-2020 14:58:10
 
METAR
KDLL 
13nm N 
272055Z AUTO 28012G17KT 10SM CLR 03/M07 A3005 RMK AO2 T00331074
KC29 
15nm SE 
272055Z AUTO 28013G17KT 10SM CLR 06/M06 A3005 RMK AO1 T00561059
KC35 
17nm NW 
272035Z AUTO 30012G20KT 10SM CLR 04/M08 A3005 RMK AO2 T00411076 PWINO
KLNR 
19nm W 
271956Z AUTO 29009G19KT 10SM CLR 05/M06 A3008 RMK AO2 SLP185 T00501061
KMSN 
20nm SE 
272053Z 30007G15KT 10SM FEW035 05/M06 A3004 RMK AO2 SLP181 T00501061 55007
TAF
KMSN 
20nm SE 
271720Z 2718/2818 29009KT P6SM SCT025 FM280500 27004KT P6SM FEW250 FM280800 24005KT P6SM SKC FM281700 23010G18KT P6SM SKC
NOTAMs
Click for the latest NOTAMs
NOTAMs are issued by the DoD/FAA and will open in a separate window not controlled by AirNav.

 

 
 

FBO, Fuel Providers, and Aircraft Ground Support

  
 Business Name 
 
 Contact 
 
 Services / Description 
 
Fuel Prices
 
Comments
  
Blue Sky Flight LLC 608-215-9609
[email]
Aviation fuel

More info about Blue Sky Flight LLC
UL94
SS $4.12 
 Updated 30-Sep-2020
 
   write
SS=Self service
Update Fuel Prices
 

Would you like to see your business listed on this page?

 If your business provides an interesting product or service to pilots, flight crews, aircraft, or users of the Sauk-Prairie Airport, you should consider listing it here.  To start the listing process, click on the button below
 
Add a business
 

Other Pages about Sauk-Prairie Airport

www.saukprairieairport.com
Page from the Wisconsin airport directory (PDF)
 
Update a link
 
Copyright © AirNav, LLC. All rights reserved. Privacy Policy  Contact